Tracking 28792 objects as of 23-Apr-2024
HD Live streaming from Space Station
objects crossing your sky now

COSMOS 1750

Track COSMOS 1750 now!
10-day predictions
COSMOS 1750 is classified as:


NORAD ID: 16760
Int'l Code: 1986-042C
Perigee: 1,415.0 km
Apogee: 1,477.1 km
Inclination: 74.0 °
Period: 114.6 minutes
Semi major axis: 7817 km
RCS: 0.6995 m2 (medium)
Launch date: June 6, 1986
Source: Commonwealth of Independent States (former USSR) (CIS)
Launch site: PLESETSK MISSILE AND SPACE COMPLEX (PKMTR)
Your satellite tracking list
Your tracking list is empty




NASA's NSSDC Master Catalog

Two Line Element Set (TLE):
1 16760U 86042C   24113.33132784 -.00000004  00000-0  76299-4 0  9994
2 16760  74.0174  74.7286 0039726 332.6022 181.6065 12.56145820736922
Source of the keplerian elements: AFSPC